NOAA 16 DEB, 41401

Orbit data source: Space-Track

NOAA 16 DEB, 41401 is space debris in SSO originally from a launch on Thu, 21 Sep 2000 UTC launched from the Air Force Western Test Range (AFWTR). Debris objects in space refer to the collection of defunct objects orbiting the Earth. Examples of debris include non-operational satellites, rocket bodies, and fragments generated from explosions, collisions, or faulty payload assembly.

Loading next visibility...
Identifier
41401, 2000-055KE
Orbit
SSO
Country
Flag of USUS
Related business
Manufacturer
Unknown
Mission
Spacecraft
Bus & Motor
Unknown
Mass
Unknown
Launch date (UTC)
2000-09-21 (26 years ago)
Launch vehicle
Unknown
Launch site
Air Force Western Test Range (AFWTR)
Object type
Payload
Rocket body
Debris
Shape & HBR
Unknown shape, 0.1 m
Radar Cross Section
Medium (>0.1 m² and <1 m²)

Expand to show TLE details & history
Last TLE update: 4 days ago

TLE from 4 days ago
0 NOAA 16 DEB
1 41401U 00055KE  26246.31570013  .00001704  00000-0  75129-3 0  9999
2 41401  98.6633 279.9189 0016610 314.4425  45.5395 14.24624271544635
Epoch: 2026-09-03T07:34Z
TLE epoch observation values (Epoch: 2026-09-03T07:34:36.491Z)
Latitude
0.00004°
Longitude
-176.18879°
Altitude
804.325 km
Speed
7.456 km/s
True Right ascension
18h 39m 40s
True Declination
0° 00' 00"
Sunlit
Object was in partial shadow at epoch
Visualization orbit readout
Latitude
Unknown
Longitude
Unknown
Altitude
Unknown
Speed
Unknown
Apparent Right ascension
Unknown
Apparent Declination
Unknown
Sunlit
N/A
Visualization observer readout
Local Sidereal Time
13:28:45
Azimuth
Unknown
Elevation
Unknown
Doppler factor
Unknown
Orbital elements
Apogee altitude
818.841 km
Perigee altitude
794.972 km
Semi-major axis
7,185.043 km
Eccentricity
0.00166
Inclination
98.6633°
RAAN
279.9189°
Arg. of periapsis
314.4425°
True anomaly
45.67555°
Mean anomaly
45.5395°
Eccentric anomaly
45.6075°
Mean motion
3.56368 °/min
Orbital period
101.02 mins
BSTAR
0.00075129
Loading maneuver chart data...
Computing Atmospheric mass density...
Loading historical data...
Loading historical data...
Loading historical data...
Loading historical data...
Loading historical data...
Loading historical data...
Loading historical data...

Documentation

Showing up to 5 results
|